Regional Weather Roundup
Issued by NWS

Home | Current Version | Previous Version | Text Only | Print | Product List | Glossary On
Versions: 1 2 3 4 5 6 7 8 9 10 11 12 13 14 15 16 17 18 19 20 21 22 23 24 25 26 27 28 29 30 31 32 33 34 35 36 37 38 39 40 41 42 43 44 45 46 47 48 49 50
000
ASUS42 KFFC 300103
RWRGA
WEATHER ROUNDUP FOR GEORGIA
NATIONAL WEATHER SERVICE PEACHTREE CITY GA
900 PM EDT FRI MAY 29 2015

NOTE: "FAIR" INDICATES FEW OR NO CLOUDS BELOW 12,000 FEET WITH NO
SIGNIFICANT WEATHER AND/OR OBSTRUCTIONS TO VISIBILITY.

* = USE WITH CAUTION. THE STATIONS MARKED WITH AN ASTERISK MAY NOT
REPORT WEATHER SUCH AS PRECIPITATION, FOG, OR THUNDER AND ARE NOT
QUALITY CONTROLLED BY NWS.

THE REMARK "TC" DENOTES TEMPERATURE READING IN DEGREES CELSIUS.

GAZ001>058-300200-
NORTH GEORGIA

CITY           SKY/WX    TMP DP  RH WIND       PRES   REMARKS
ATLANTA        PTCLDY    78  61  55 SE5       30.14S
ATHENS         PTCLDY    73  63  70 E3        30.15R
CHAMBLEE       CLEAR     76  64  66 SE3       30.15R
PEACHTREE CITY CLEAR     71  66  84 CALM      30.14R
ROME           PTCLDY    72  70  93 E5        30.11S
WEST ATLANTA   CLEAR     79  61  53 SE5       30.14R
GAINESVILLE    PTCLDY    76  64  66 SE3       30.18S
CARTERSVILLE   PTCLDY    70  67  90 CALM      30.13R


CITY           SKY/WX    TMP DP  RH WIND       PRES   REMARKS
DALTON*        PTCLDY    73  70  88 CALM      30.13R
LAWRENCEVILLE* CLEAR     73  57  56 CALM      30.14S
MARIETTA       MOCLDY    78  64  63 SE8       30.14S
BLAIRSVILLE*     N/A     71  43  36 CALM      30.20S
$$

GAZ059>098-102>109-300200-
CENTRAL GEORGIA

CITY           SKY/WX    TMP DP  RH WIND       PRES   REMARKS
AUGUSTA-BUSH   MOCLDY    75  65  70 SE10G16   30.13R
AUGUSTA-DANIEL PTCLDY    83  58  42 SE3       30.15R
COLUMBUS       PTCLDY    78  60  53 SE5       30.10R
MACON          PTCLDY    74  63  68 CALM      30.12S
ROBINS AFB     PTCLDY    74  65  73 N1        30.11S


CITY           SKY/WX    TMP DP  RH WIND       PRES   REMARKS
LAGRANGE*      PTCLDY    76  71  85 CALM      30.12S
SYLVANIA*      CLEAR     78  68  69 SE5       30.16R
MILLEDGEVILLE* PTCLDY    77  64  65 CALM      30.13S
$$

GAZ099>101-110>166-300200-
SOUTH GEORGIA

CITY           SKY/WX    TMP DP  RH WIND       PRES   REMARKS
SAVANNAH       PTCLDY    75  66  73 E8        30.16R
VALDOSTA       CLEAR     80  60  50 CALM      30.10R
ALMA           CLEAR     77  64  64 E9        30.12S
FT STEWART     CLOUDY    76  69  77 E6        30.13R
ALBANY         CLEAR     81  58  45 CALM      30.12R
HUNTER AFB     CLEAR     75  70  84 E7        30.14R
MOODY AFB      CLEAR     78  59  52 E3        30.09R
BRUNSWICK      CLOUDY    75  68  78 CALM      30.15S


CITY           SKY/WX    TMP DP  RH WIND       PRES   REMARKS
BAINBRIDGE*    CLEAR     81  68  65 CALM      30.09R
MOULTRIE*      PTCLDY    77  63  61 CALM      30.10S
VIDALIA*       PTCLDY    79  64  61 SE6       30.14R
WAYCROSS*      CLEAR     77  69  75 SE8       30.12S
DOUGLAS*       PTCLDY    81  64  57 SE6       30.13S
$$



USA.gov is the U.S. government's official web portal to all federal, state and local government web resources and services.